Regional Weather Roundup
Issued by NWS

Home | Current Version | Previous Version | Graphics & Text | Print | Product List | Glossary On
Versions: 1 2 3 4 5 6 7 8 9 10 11 12 13 14 15 16 17 18 19 20 21 22 23 24 25 26 27 28 29 30 31 32 33 34 35 36 37 38 39 40 41 42 43 44 45 46 47 48 49 50
000
ASUS43 KTOP 301508
RWRKS

WEATHER ROUNDUP FOR KANSAS
NATIONAL WEATHER SERVICE GOODLAND KS
1000 AM CDT WED JUL 30 2014

NOTE:  "FAIR" INDICATES FEW OR NO CLOUDS BELOW 12,000 FEET WITH NO
SIGNIFICANT WEATHER AND/OR OBSTRUCTIONS TO VISIBILITY.

KSZ001>006-013>018-027>032-041>047-301600-
NORTHWEST KANSAS

CITY           SKY/WX    TMP DP  RH WIND       PRES   REMARKS
GOODLAND       LGT RAIN  61  59  93 E13       30.24R FOG
HAYS           CLOUDY    64  57  77 E9        30.15S
HILL CITY      CLOUDY    67  59  75 NE9       30.18R
RUSSELL        LGT RAIN  66  60  81 E5        30.14R
$$

KSZ061>065-074>080-084>089-301600-
SOUTHWEST KANSAS

CITY           SKY/WX    TMP DP  RH WIND       PRES   REMARKS
DODGE CITY     HVY RAIN  64  62  93 E12       30.10R FOG
ELKHART          N/A     65  61  87 N12         N/A
GARDEN CITY    RAIN      64  63  96 NE18      30.11S FOG
GREAT BEND     CLOUDY    63  57  82 E14       30.12S
LIBERAL        CLOUDY    66  63  88 E3        30.05S
PRATT          RAIN      64  63  94 E10       30.11S
$$

KSZ066>073-081>083-090>101-301600-
SOUTHEAST KANSAS

CITY           SKY/WX    TMP DP  RH WIND       PRES   REMARKS
CHANUTE        LGT RAIN  69  65  86 E6        30.10R
COFFEYVILLE    CLOUDY    74  64  71 E8        30.08S
HUTCHINSON     CLOUDY    69  60  73 NE9       30.12R
MEDICINE LODGE   N/A     66  65  96 E7        30.07F
NEWTON         CLOUDY    66  57  72 E9        30.15S
PARSONS        CLOUDY    73  64  73 VRB3      30.10R
WICHITA INTL   CLOUDY    71  62  73 E7        30.10R
WICHITA JABRA  CLOUDY    71  62  73 E6        30.10R
WICHITA MCCONL CLOUDY    71  64  78 E9        30.10S
WINFIELD       LGT RAIN  69  67  93 E3        30.12R FOG
$$

KSZ007>012-019>026-033>040-048>060-102>105-301600-
NORTHEAST KANSAS

CITY           SKY/WX    TMP DP  RH WIND       PRES   REMARKS
CONCORDIA      CLOUDY    66  64  93 NE5       30.15R
EMPORIA        CLOUDY    67  64  90 NE7       30.12R
LAWRENCE       CLOUDY    69  59  70 NE5       30.12S
MANHATTAN      CLOUDY    68  64  87 NE6       30.13S
MARYSVILLE     CLOUDY    70  57  64 NE6       30.15S
OLATHE IND     CLOUDY    69  61  75 N5        30.13S
OLATHE EXE     CLOUDY    69  59  70 NE6       30.11F
SALINA         CLOUDY    69  57  65 E8        30.14R
TOPEKA BILLARD CLOUDY    69  60  73 NE6       30.12S
TOPEKA FORBES  CLOUDY    69  58  67 NE5       30.12S
$$



USA.gov is the U.S. government's official web portal to all federal, state and local government web resources and services.